Location: Cannifist
(18.2333°N, 63.0167°W)
Time: 15:14:00
(UTC+00:00)

ATLAS 2AS CENTAUR R/B - Pass Details

Date: 27 February 2020
Orbit: 929 x 1283 km, 63.7° (Epoch: 27 March)

Event Time Altitude Azimuth Distance (km) Brightness Sun altitude
Rises 23:12:25 0° 186° (S) 4,027 5.8 -13.8°
Reaches altitude 10° 23:15:13 10° 179° (S) 3,114 5.2 -14.5°
Maximum altitude 23:22:17 43° 110° (ESE) 1,680 3.3 -16.2°
Enters shadow 23:28:58 13° 44° (NE) 3,050 4.7 -17.7°
